Stations météo

réclame
Mon MeteoGroup
Hoorn-A, Pays-Bas (6212): Température de l'air & dewpoint: 19.06.2018 21:00:00 - 25.06.2018 21:00:00 (CEST)Hoorn-A, Pays-Bas (6212): Vitesse du vent & gusts: 19.06.2018 21:00:00 - 25.06.2018 21:00:00 (CEST)Hoorn-A, Pays-Bas (6212): Direction du vent: 19.06.2018 21:00:00 - 25.06.2018 21:00:00 (CEST)Hoorn-A, Pays-Bas (6212): reduced air pressure: 19.06.2018 21:00:00 - 25.06.2018 21:00:00 (CEST)Hoorn-A, Pays-Bas (6212): visibility: 19.06.2018 21:00:00 - 25.06.2018 21:00:00 (CEST)
Date & Time tt [°C] td [°C] ff [km/h] ff [knt] fx [km/h] fx [knt] dd ppp [hPa] vv [km]
25.06.2018 21:00:00 13,3 11,9 16 9 18 10 N 1026,7 10
25.06.2018 20:00:00 12,9 11,7 16 9 22 12 N 1026,6 10
25.06.2018 19:00:00 12,6 11,3 16 9 22 12 N 1026,7 10
25.06.2018 18:00:00 13,1 11,9 18 10 18 10 NNW 1026,8 10
25.06.2018 17:00:00 12,9 11,7 15 8 25 14 NNW 1026,9 10
25.06.2018 16:00:00 13,0 11,7 15 8 22 12 NW 1026,8 10
25.06.2018 15:00:00 12,8 11,5 9 5 14 8 NW 1026,7 10
25.06.2018 14:00:00 12,8 11,5 8 4 11 6 NNW 1026,4 10
25.06.2018 13:00:00 12,8 11,8 9 5 14 8 NNW 1026,6 10
25.06.2018 12:00:00 12,6 11,9 11 6 18 10 NNW 1026,4 10
25.06.2018 11:00:00 12,2 11,8 15 8 18 10 NNW 1026,3 5
25.06.2018 10:00:00 11,9 11,8 15 8 18 10 NNW 1025,8 0,2
25.06.2018 09:00:00 12,2 12,1 18 10 22 12 NNW 1025,6 0,2
25.06.2018 08:00:00 12,2 12,1 21 11 22 12 N 1025,6 0,4
25.06.2018 07:00:00 12,5 12,3 22 12 25 14 NNW 1025,2 0,4
25.06.2018 06:00:00 12,4 12,1 18 10 22 12 NNW 1024,9 0,9
25.06.2018 05:00:00 12,8 12,2 16 9 22 12 NNW 1024,7 9
25.06.2018 04:00:00 13,1 12,2 13 7 18 10 N 1024,5 10
25.06.2018 03:00:00 13,4 12,2 16 9 22 12 N 1024,7 10
25.06.2018 02:00:00 13,5 11,9 22 12 25 14 N 1024,9 10
25.06.2018 01:00:00 13,5 11,6 24 13 25 14 N 1024,7 10
25.06.2018 00:00:00 13,5 11,6 24 13 25 14 N 1024,7 10
24.06.2018 23:00:00 13,4 11,7 28 15 29 16 NNW 1024,8 10
24.06.2018 22:00:00 13,4 11,4 26 14 32 18 N 1024,6 10
24.06.2018 21:00:00 13,1 11,2 31 17 32 18 NNW 1024,5 10
24.06.2018 20:00:00 13,5 11,2 31 17 36 19 NNW 1024,6 10
24.06.2018 19:00:00 13,8 10,8 31 17 36 19 NNW 1024,4 10
24.06.2018 18:00:00 13,9 11,3 31 17 32 18 NNW 1024,7 10
24.06.2018 17:00:00 13,9 11,2 31 17 29 16 NNW 1024,9 10
24.06.2018 16:00:00 14,1 10,4 28 15 29 16 NW 1024,7 10
24.06.2018 15:00:00 14,0 10,2 24 13 25 14 NW 1024,9 10
24.06.2018 14:00:00 13,8 10,1 21 11 25 14 NW 1025,0 10
24.06.2018 13:00:00 13,6 10,5 26 14 25 14 NW 1025,3 10
24.06.2018 12:00:00 13,4 10,7 24 13 25 14 NW 1025,1 10
24.06.2018 11:00:00 13,2 10,3 22 12 25 14 NW 1025,1 10
24.06.2018 10:00:00 13,1 10,3 22 12 22 12 NW 1025,0 10
24.06.2018 09:00:00 13,0 9,8 24 13 25 14 NNW 1024,7 10
24.06.2018 08:00:00 13,0 9,3 24 13 25 14 NNW 1024,6 10
24.06.2018 07:00:00 13,0 9,1 24 13 25 14 NNW 1024,2 10
24.06.2018 06:00:00 13,0 8,9 22 12 25 14 NNW 1024,1 10
24.06.2018 05:00:00 13,0 9,3 21 11 22 12 NNW 1023,9 10
24.06.2018 04:00:00 13,1 9,3 18 10 22 12 NNW 1024,4 10
24.06.2018 03:00:00 13,3 9,1 16 9 18 10 N 1024,3 10
24.06.2018 02:00:00 13,5 8,9 15 8 18 10 N 1024,7 10
24.06.2018 01:00:00 13,5 9,1 18 10 22 12 N 1024,8 10
24.06.2018 00:00:00 13,5 10,6 22 12 22 12 NNW 1025,3 10
23.06.2018 23:00:00 13,5 10,6 18 10 18 10 NNW 1025,2 10
23.06.2018 22:00:00 13,4 11,2 21 11 22 12 NW 1025,1 10
23.06.2018 21:00:00 13,7 10,7 15 8 18 10 NNW 1024,9 10
23.06.2018 20:00:00 13,6 10,8 18 10 18 10 NNW 1024,9 10
23.06.2018 19:00:00 13,7 11,4 18 10 18 10 WNW 1025,2 10
23.06.2018 18:00:00 14,3 11,3 15 8 18 10 W 1025,8 10
23.06.2018 17:00:00 14,2 10,6 16 9 22 12 SSW 1026,1 10
23.06.2018 16:00:00 14,2 10,0 18 10 22 12 SSW 1026,3 10
23.06.2018 15:00:00 14,2 8,5 21 11 22 12 SSW 1026,8 10
23.06.2018 14:00:00 14,1 8,4 11 6 14 8 SSW 1027,4 10
23.06.2018 13:00:00 13,7 9,1 9 5 14 8 WNW 1027,7 10
23.06.2018 12:00:00 13,4 9,6 15 8 18 10 NW 1027,7 10
23.06.2018 11:00:00 13,3 9,9 16 9 18 10 WNW 1027,8 10
23.06.2018 10:00:00 13,1 10,1 21 11 25 14 WNW 1027,8 10
23.06.2018 09:00:00 13,1 9,9 26 14 32 18 NW 1027,5 10
23.06.2018 08:00:00 13,0 9,6 34 18 32 18 NW 1027,6 10
23.06.2018 07:00:00 12,9 9,4 29 16 32 18 NW 1027,6 10
23.06.2018 06:00:00 12,7 9,5 31 17 32 18 NW 1027,5 10
23.06.2018 05:00:00 12,7 9,4 31 17 32 18 NW 1027,7 10
23.06.2018 04:00:00 12,7 8,9 34 18 36 19 NW 1027,9 10
23.06.2018 03:00:00 12,7 8,9 37 20 36 19 NW 1028,3 10
23.06.2018 02:00:00 12,7 8,8 35 19 32 18 NW 1028,2 10
23.06.2018 01:00:00 12,5 8,4 34 18 36 19 NW 1028,5 10
23.06.2018 00:00:00 12,3 8,0 31 17 32 18 NW 1028,7 10
22.06.2018 23:00:00 12,2 8,1 31 17 32 18 NNW 1028,6 10
22.06.2018 22:00:00 12,4 8,2 34 18 40 21 NNW 1028,6 10
22.06.2018 21:00:00 12,4 7,3 39 21 40 21 NNW 1028,4 10
22.06.2018 20:00:00 12,4 7,1 44 24 43 23 NNW 1028,6 10
22.06.2018 19:00:00 12,6 7,8 44 24 43 23 NNW 1028,3 10
22.06.2018 18:00:00 12,6 7,7 44 24 47 25 NNW 1028,3 10
22.06.2018 17:00:00 12,6 7,7 44 24 47 25 NNW 1028,0 10
22.06.2018 16:00:00 12,6 7,7 46 25 47 25 NW 1027,9 10
22.06.2018 15:00:00 12,5 7,6 48 26 50 27 NW 1027,8 10
22.06.2018 14:00:00 12,4 8,7 46 25 47 25 NW 1027,3 10
22.06.2018 13:00:00 12,0 8,8 46 25 50 27 NNW 1027,3 6
22.06.2018 12:00:00 11,8 8,1 48 26 50 27 NNW 1026,7 5
22.06.2018 11:00:00 12,2 8,5 50 27 54 29 NNW 1026,3 7
22.06.2018 10:00:00 12,4 7,9 50 27 54 29 NNW 1025,8 10
22.06.2018 09:00:00 12,4 7,2 55 30 61 33 NW 1025,0 10
22.06.2018 08:00:00 11,9 8,3 63 34 65 35 NW 1024,7 10
22.06.2018 07:00:00 12,5 6,7 70 38 68 37 NW 1024,4 10
22.06.2018 06:00:00 12,7 5,3 74 40 76 41 NNW 1024,2 10
22.06.2018 05:00:00 12,9 7,4 65 35 68 37 NW 1023,5 10
22.06.2018 04:00:00 12,9 8,2 65 35 68 37 NW 1023,8 10
22.06.2018 03:00:00 12,9 7,4 59 32 65 35 NW 1023,0 10
22.06.2018 02:00:00 13,0 7,4 59 32 65 35 NW 1023,4 10
22.06.2018 01:00:00 13,0 7,3 63 34 68 37 NW 1024,2 10
22.06.2018 00:00:00 12,9 6,0 67 36 68 37 NW 1024,1 10
21.06.2018 23:00:00 13,0 6,7 67 36 68 37 NW 1024,0 10
21.06.2018 22:00:00 13,1 6,1 65 35 65 35 NW 1024,6 10
21.06.2018 21:00:00 12,9 6,5 55 30 54 29 WNW 1023,7 10
21.06.2018 20:00:00 12,4 6,5 54 29 58 31 NW 1024,1 10
21.06.2018 19:00:00 12,4 5,9 55 30 58 31 NW 1024,4 10
21.06.2018 18:00:00 12,5 7,4 57 31 54 29 NW 1023,9 10
21.06.2018 17:00:00 12,1 7,4 59 32 61 33 NW 1023,4 10
21.06.2018 16:00:00 12,5 7,4 50 27 58 31 NW 1022,7 10
21.06.2018 15:00:00 12,3 7,2 55 30 58 31 NW 1022,3 10
21.06.2018 14:00:00 12,6 7,7 59 32 61 33 NW 1021,3 10
21.06.2018 13:00:00 12,1 7,5 61 33 61 33 NW 1020,3 10
21.06.2018 12:00:00 12,0 6,7 61 33 61 33 NW 1018,8 10
21.06.2018 11:00:00 12,1 6,1 57 31 61 33 NW 1018,3 10
21.06.2018 10:00:00 12,1 6,6 61 33 58 31 WNW 1017,5 10
21.06.2018 09:00:00 12,4 7,1 59 32 58 31 WNW 1016,8 10
21.06.2018 08:00:00 12,7 7,8 55 30 54 29 NW 1016,3 10
21.06.2018 07:00:00 13,1 8,6 55 30 58 31 NW 1015,8 10
21.06.2018 06:00:00 13,2 10,2 46 25 43 23 WNW 1015,6 10
21.06.2018 05:00:00 13,3 11,2 39 21 36 19 NW 1015,7 10
21.06.2018 04:00:00 13,6 12,1 29 16 32 18 NW 1016,0 10
21.06.2018 03:00:00 13,8 12,3 24 13 25 14 NW 1016,1 10
21.06.2018 02:00:00 14,0 13,1 26 14 25 14 NW 1016,2 10
21.06.2018 01:00:00 14,4 13,6 21 11 29 16 NNW 1016,4 10
21.06.2018 00:00:00 15,0 13,7 35 19 36 19 NW 1016,7 10
20.06.2018 23:00:00 15,4 14,2 24 13 29 16 WNW 1016,5 10
20.06.2018 22:00:00 15,3 14,3 29 16 32 18 SSW 1016,7 9
20.06.2018 21:00:00 15,3 14,4 29 16 32 18 SSW 1016,7 10
20.06.2018 20:00:00 15,2 14,4 35 19 36 19 S 1016,9 10
20.06.2018 19:00:00 14,6 14,5 35 19 - - S 1017,1 6
20.06.2018 18:00:00 - - - - - - - - -
20.06.2018 17:00:00 15,0 14,0 - - - - - - -
20.06.2018 16:00:00 14,8 13,8 44 24 47 25 S 1018,6 10
20.06.2018 15:00:00 14,6 13,9 52 28 54 29 S 1018,8 6
20.06.2018 14:00:00 14,2 13,8 55 30 54 29 S 1018,6 7
20.06.2018 13:00:00 13,8 13,7 50 27 50 27 S 1019,1 0,5
20.06.2018 12:00:00 13,6 13,5 42 23 43 23 S 1019,3 0,4
20.06.2018 11:00:00 13,6 13,6 44 24 43 23 S 1019,7 0,4
20.06.2018 10:00:00 13,7 13,7 42 23 43 23 S 1020,0 0,2
20.06.2018 09:00:00 13,8 13,8 36 19 43 23 S 1020,0 0,2
20.06.2018 08:00:00 14,1 14,0 41 22 40 21 S 1019,9 0,1
20.06.2018 07:00:00 13,9 13,9 41 22 36 19 S 1020,0 0,2
20.06.2018 06:00:00 14,1 14,1 37 20 36 19 S 1020,2 0,2
20.06.2018 05:00:00 14,2 14,2 39 21 40 21 S 1020,2 0,4
20.06.2018 04:00:00 14,8 14,3 36 19 43 23 S 1020,5 1,9
20.06.2018 03:00:00 15,6 14,4 42 23 43 23 S 1020,7 10
20.06.2018 02:00:00 15,6 14,2 46 25 43 23 S 1021,1 10
20.06.2018 01:00:00 15,8 14,3 44 24 43 23 S 1021,4 10
20.06.2018 00:00:00 15,8 14,4 46 25 43 23 S 1021,7 10
19.06.2018 23:00:00 15,8 14,5 46 25 43 23 S 1022,0 10
19.06.2018 22:00:00 15,7 14,3 41 22 36 19 S 1022,2 10
19.06.2018 21:00:00 15,7 14,6 29 16 32 18 S 1022,2 15

tt = Température de l'air
td = dewpoint
ff = Vitesse du vent
fx = gusts
dd = Direction du vent
ppp = reduced air pressure
vv = visibility

stations d'obs. à proximité